logo
App data

Woodle Tree 2: Worlds

Woodle Tree 2: Worlds is an open world platformer/adventure videogame. This time the forces of evil are taking over the Wood Lands with a black substance that is absorbing energy and life from the living creatures! Will you be able to take over this enormous new evil force?
Store | Hub | SteamDB | Site
Developer: Fabio Ferrara Publisher: Chubby Pixel
Genre: Action, Adventure, Massively Multiplayer
Languages: English, French, Italian, German, Spanish, Arabic, Japanese, Russian
Tags: Adventure (39), Action (36), Massively Multiplayer (32), Open World (22), 3D Platformer (22), 4 Player Local (13), Online Co-Op (12), Co-op Campaign (12)
Category: Single-player, Multi-player, Online Multi-Player, Local Multi-Player, MMO, Co-op, Local Co-op, Steam Achievements, Full controller support, Steam Trading Cards
Release date: Sep 16, 2016 (previously in Early Access)
Price: $3.99
Score rank: 18% Userscore: 59% Old userscore: 74%
Owners: 50,000 .. 100,000
Followers: 1,136
Peak concurrent players yesterday: 2
Playtime in the last 2 weeks: 05:11 (average) 05:23 (median)
Playtime total: 04:35 (average) 04:47 (median)

Steam Spy is still in beta, so expect major bugs.

Owners data:

Access restricted.

This feature is only available to users with special access rights. Sorry.

If you want to proceed, you need to register or log in first and then back Steam Spy on Patreon. Look for Indie or Pro pledge.

Don't forget to use the same email as on Steam Spy!

Audience in 2 weeks:

Access restricted.

This feature is only available to users with special access rights. Sorry.

If you want to proceed, you need to register or log in first and then back Steam Spy on Patreon. Look for Indie or Pro pledge.

Don't forget to use the same email as on Steam Spy!

Peak daily concurrent players:

CCU data courtesy of SteamDB. Used with permission.

Hourly concurrent players:

Daily Twitch stats:

Hourly Twitch stats:

YouTube:

The views data is based on top 50 videos uploaded last week. Actual number of views might be more than the number shown.

The displayed number of videos uploaded yesterday is limited to 50, so if there were more videos uploaded, the number will still show 50.

If the game has commonly used word as its name (like "FEAR" or "Volume") its number of Youtube views might be wrong.

Games similar to this one:

# Game Release date
Price
Score rank
(Userscore / Metascore)
Owners
Players
Playtime (Median)
1 Little Big Adventure 2 Oct 20, 2015 $3.9999% (98%)20,000 .. 50,0000%00:00 (00:00)
2 Militia Dec 2, 2015 $5.9999% (98%)0 .. 20,0000%00:00 (00:00)
3 Dungeon Warfare Nov 4, 2015 $9.9997% (97%)20,000 .. 50,0003.39%00:58 (00:38)
4 Seven Kingdoms: Ancient Adversaries Jun 8, 1998 $5.99N/A (N/A)0 .. 20,0000%00:00 (00:00)
5 Voodoo Vince: Remastered Apr 18, 2017 $14.9995% (96%/63%)0 .. 20,0000%00:00 (00:00)
6 Defend The Highlands Nov 6, 2015 $9.9995% (96%)100,000 .. 200,0001.29%01:32 (02:27)
7 Imperium Galactica Mar 1, 1997 $4.99N/A (N/A)0 .. 20,0000%00:00 (00:00)
8 Supercharged Robot VULKAISER Jun 4, 2015 $4.9993% (95%)20,000 .. 50,0000%00:00 (00:00)
9 Hegemony Gold: Wars of Ancient Greece Mar 30, 2012 $14.9993% (95%)20,000 .. 50,0000%00:00 (00:00)
10 Flywrench Aug 24, 2015 $6.9993% (95%)0 .. 20,0000%00:00 (00:00)
11 Chicken Invaders 2 Mar 4, 2016 $3.9993% (95%)0 .. 20,0000%00:00 (00:00)
12 ESCHATOS Sep 18, 2015 $14.9990% (94%)0 .. 20,00033.33%00:03 (00:01)
13 Majesty Gold HD Sep 4, 2009 $9.9990% (94%)100,000 .. 200,0000%00:00 (00:00)
14 Stick it to The Man! Dec 13, 2013 $7.9990% (94%/83%)20,000 .. 50,0000%00:00 (00:00)
15 Star Trek: Judgment Rites May 8, 2015 $9.99N/A (N/A)0 .. 20,0000%00:00 (00:00)
16 Neon Chrome Apr 28, 2016 $14.9990% (94%/74%)200,000 .. 500,0002.3%04:26 (02:23)
17 Templar Battleforce Sep 21, 2015 $9.9990% (94%)20,000 .. 50,0003.7%00:01 (00:00)
18 Outcast 1.1 Dec 18, 2014 $5.9990% (94%)20,000 .. 50,0000%00:00 (00:00)
19 PixelJunk Shooter Nov 11, 2013 $8.9990% (94%/73%)100,000 .. 200,0000%00:00 (00:00)
20 Kalimba Apr 22, 2015 $9.9990% (94%/81%)0 .. 20,0000%00:00 (00:00)
21 Handsome Mr. Frog Aug 8, 2016 $0.9990% (94%)0 .. 20,0000%00:00 (00:00)
22 Adventure in the Tower of Flight Dec 23, 2015 $4.9990% (94%)0 .. 20,0000%00:00 (00:00)
23 Audio Arena Jul 25, 2016 $6.99N/A (N/A)0 .. 20,0000%00:00 (00:00)
24 Gold Rush! Classic Jul 25, 2014 $2.9990% (94%)200,000 .. 500,0000.86%03:45 (04:24)
25 Run or Die Dec 11, 2014 $4.9990% (94%)0 .. 20,0000%00:00 (00:00)
26 Bleed Jul 3, 2013 $4.9987% (93%)100,000 .. 200,0000%00:00 (00:00)
27 Eufloria HD Oct 14, 2014 $14.9987% (93%)200,000 .. 500,0000%00:00 (00:00)
28 Pharaoh Rebirth+ Mar 17, 2016 $9.9987% (93%)0 .. 20,0000%00:00 (00:00)
29 Anarcute Jul 12, 2016 $14.9987% (93%/79%)0 .. 20,0000%00:00 (00:00)
30 Kick Ass Commandos Nov 17, 2016 $9.9987% (93%)20,000 .. 50,0000%00:00 (00:00)
31 Tallowmere Mar 3, 2015 $3.9987% (93%)20,000 .. 50,0003.64%00:25 (00:16)
32 Major Mayhem Feb 24, 2014 $4.9987% (93%)20,000 .. 50,0000%00:00 (00:00)
33 Super Trench Attack! Jul 24, 2014 $0.4987% (93%)50,000 .. 100,0000.81%26:33 (17:41)
34 Khet 2.0 Oct 1, 2014 $9.9983% (92%)50,000 .. 100,0000%00:00 (00:00)
35 Knightmare Tower Jun 16, 2014 $3.9983% (92%)0 .. 20,0000%00:00 (00:00)
36 Death Ray Manta SE Sep 17, 2015 $1.9983% (92%)20,000 .. 50,0000%00:00 (00:00)
37 Shmups Skill Test シューティング技能検定 Jun 9, 2016 $4.99N/A (N/A)0 .. 20,0000%00:00 (00:00)
38 Battle Academy 2: Eastern Front Sep 12, 2014 $39.9983% (92%/78%)0 .. 20,0000%00:00 (00:00)
39 Great Big War Game Aug 28, 2012 $6.99N/A (N/A)0 .. 20,0000%00:00 (00:00)
40 Miracle Fly Oct 26, 2015 $7.9983% (92%)20,000 .. 50,0000%00:00 (00:00)
41 Ys VI: The Ark of Napishtim Apr 28, 2015 $19.9983% (92%/76%)50,000 .. 100,0000%00:00 (00:00)
42 Counter Spell Oct 5, 2015 $9.9983% (92%)0 .. 20,0000%00:00 (00:00)
43 Weird Hero Nov 18, 2016 $0.7483% (92%)0 .. 20,0000%00:00 (00:00)
44 The Juicer Sep 6, 2012 $0.9980% (91%)20,000 .. 50,0002.53%04:19 (01:43)
45 Spider: Rite of the Shrouded Moon Aug 6, 2015 $9.9980% (91%)20,000 .. 50,0000%00:00 (00:00)
46 Momodora III Jul 1, 2014 $1.9980% (91%)50,000 .. 100,0000%00:00 (00:00)
47 Ittle Dew Jul 23, 2013 $9.9980% (91%/67%)100,000 .. 200,0000.37%00:35 (00:11)
48 Clash of Puppets Dec 16, 2014 $4.9980% (91%)0 .. 20,0000%00:00 (00:00)
49 Darknet Jun 8, 2017 $14.99N/A (N/A)0 .. 20,0000%00:00 (00:00)
50 Super Cyborg Jul 8, 2015 $4.9980% (91%)20,000 .. 50,0001.61%01:07 (00:44)
51 Angry Video Game Nerd II: ASSimilation Mar 29, 2016 $9.9980% (91%)20,000 .. 50,0000%00:00 (00:00)
52 Earth Defense Force: Insect Armageddon Dec 14, 2011 $9.9980% (91%/69%)50,000 .. 100,0000%00:00 (00:00)
53 Skulls of the Shogun Jul 29, 2013 $9.9980% (91%/72%)100,000 .. 200,0000%00:00 (00:00)
54 Ace of Seafood Apr 8, 2016 $5.9980% (91%)0 .. 20,0000%00:00 (00:00)
55 Apocalypse: Party's Over May 30, 2016 $4.9980% (91%)0 .. 20,0000%00:00 (00:00)
56 Warrior Kings: Battles May 6, 2014 $9.9980% (91%/64%)0 .. 20,0000%00:00 (00:00)
57 Wild Guns Reloaded Jul 11, 2017 $19.9980% (91%)0 .. 20,0000%00:00 (00:00)
58 Kohan II: Kings of War Aug 24, 2011 $9.9980% (91%/81%)20,000 .. 50,0000%00:00 (00:00)
59 Flashpoint Campaigns: Red Storm Player's Edition Oct 9, 2013 $49.9980% (91%)0 .. 20,0000%00:00 (00:00)
60 Dandy: Or a Brief Glimpse Into the Life of the Candy Alchemist Aug 4, 2015 $9.99N/A (N/A)0 .. 20,0000%00:00 (00:00)
61 Mad Bullets Jun 10, 2016 $2.9980% (91%)0 .. 20,0000%00:00 (00:00)
62 Blue Estate The Game Apr 8, 2015 $12.9980% (91%/59%)50,000 .. 100,0001.61%01:03 (00:41)
63 Below Kryll Sep 7, 2015 $4.9980% (91%)0 .. 20,0000%00:00 (00:00)
64 Wars and Warriors: Joan of Arc Feb 7, 2004 $6.9980% (91%/60%)0 .. 20,0000%00:00 (00:00)
65 RIVE: Wreck, Hack, Die, Retry! Sep 13, 2016 $14.9976% (90%)200,000 .. 500,0000.6%04:23 (04:16)
66 Swords and Soldiers HD Dec 2, 2010 $9.9976% (90%)100,000 .. 200,0000.59%04:56 (01:06)
67 Death's Hangover Jan 20, 2017 $4.9976% (90%)20,000 .. 50,0007%02:46 (03:57)
68 Headlander Jul 25, 2016 $19.9976% (90%/74%)100,000 .. 200,0000.84%01:01 (00:40)
69 Kohan: Ahriman's Gift Nov 6, 2001 $9.99N/A (N/A/79%)0 .. 20,0000%00:00 (00:00)
70 Planet of the Eyes Aug 24, 2015 $9.9976% (90%/66%)50,000 .. 100,0000%00:00 (00:00)
71 Superstatic Sep 15, 2015 $4.99N/A (N/A)0 .. 20,0000%00:00 (00:00)
72 Sneaky Sneaky Nov 12, 2014 $4.9976% (90%/63%)0 .. 20,0000%00:00 (00:00)
73 Near Death Aug 2, 2016 $14.9976% (90%/70%)0 .. 20,0000%00:00 (00:00)
74 Armed with Wings: Rearmed Jun 1, 2017 $9.9976% (90%)20,000 .. 50,0001.18%00:01 (00:00)
75 Valley Aug 24, 2016 $19.9976% (90%)100,000 .. 200,0001.6%02:58 (02:41)
76 Zombo Buster Rising Oct 2, 2016 $1.9973% (89%)0 .. 20,0001.37%01:00 (00:20)
77 Warhammer 40,000: Dawn of War – Winter Assault Aug 7, 2007 $12.9973% (89%)500,000 .. 1,000,0000%00:00 (00:00)
78 MoonBase Commander Feb 6, 2014 $5.9973% (89%/77%)0 .. 20,0000%00:00 (00:00)
79 Silent Storm Gold Edition Oct 2, 2013 $9.9973% (89%/83%)100,000 .. 200,0000.74%04:29 (01:29)
80 Amaranthine Apr 6, 2016 $2.9973% (89%)0 .. 20,0006.25%02:07 (01:24)
81 CastleStorm Jul 29, 2013 $9.9973% (89%/73%)100,000 .. 200,0000%00:00 (00:00)
82 Command: Northern Inferno Oct 22, 2015 $19.99N/A (N/A)0 .. 20,0000%00:00 (00:00)
83 Codename: Panzers, Phase Two Jul 21, 2005 $14.9973% (89%/80%)0 .. 20,0000%00:00 (00:00)
84 Lethe - Episode One Aug 1, 2016 $14.9973% (89%)0 .. 20,0000%00:00 (00:00)
85 Reverse Crawl Sep 24, 2015 $2.9973% (89%)20,000 .. 50,0000.73%00:15 (00:05)
86 Super Furball May 13, 2014 $3.99N/A (N/A)0 .. 20,0000%00:00 (00:00)
87 Avoid - Sensory Overload Apr 8, 2014 $4.9970% (88%)0 .. 20,0000%00:00 (00:00)
88 Greed Corp Dec 10, 2010 $9.9970% (88%/76%)200,000 .. 500,0000.33%00:55 (00:18)
89 Fort Meow Jun 25, 2015 $7.9970% (88%)0 .. 20,0000%00:00 (00:00)
90 Atom Zombie Smasher Mar 14, 2011 $9.9970% (88%/75%)200,000 .. 500,0000%00:00 (00:00)
91 Explosionade Sep 23, 2015 $3.99N/A (N/A)0 .. 20,0000%00:00 (00:00)
92 Graviteam Tactics: Mius-Front Mar 4, 2016 $34.9970% (88%)0 .. 20,0000%00:00 (00:00)
93 The Way May 20, 2016 $14.9970% (88%/67%)50,000 .. 100,0002.9%02:01 (01:28)
94 Spectromancer Feb 11, 2009 $9.9970% (88%)20,000 .. 50,0000%00:00 (00:00)
95 Viking Squad Oct 4, 2016 $14.9970% (88%)0 .. 20,00016.67%02:58 (00:59)
96 Earn to Die 2 May 5, 2016 $4.9970% (88%)0 .. 20,0003.7%01:43 (00:34)
97 Mr. Shifty Apr 13, 2017 $14.9970% (88%)50,000 .. 100,0001.38%02:35 (02:18)
98 Tcheco in the Castle of Lucio Jun 22, 2015 $0.9970% (88%)50,000 .. 100,0000.66%03:28 (02:18)
99 Anodyne Mar 22, 2013 $9.9970% (88%/75%)100,000 .. 200,0000%00:00 (00:00)
100 Battlepillars Gold Edition Apr 28, 2014 $4.9970% (88%)20,000 .. 50,0000%00:00 (00:00)
101 The Fall May 30, 2014 $9.9970% (88%/76%)200,000 .. 500,0000.28%02:05 (00:41)
102 The Tiny Tale 2 Jan 30, 2015 $6.99N/A (N/A)0 .. 20,0000%00:00 (00:00)
103 TRON 2.0 Oct 10, 2014 $9.9968% (87%/84%)20,000 .. 50,0000%00:00 (00:00)
104 Magnifico Dec 2, 2014 $4.9968% (87%)50,000 .. 100,0000%00:00 (00:00)
105 Supreme Commander Sep 28, 2011 $12.9968% (87%/86%)500,000 .. 1,000,0000.29%08:00 (05:20)
106 Lethal VR Nov 8, 2016 $14.9968% (87%/66%)0 .. 20,0000%00:00 (00:00)
107 Syrian Warfare Feb 21, 2017 $14.9968% (87%)50,000 .. 100,0007.14%02:25 (00:49)
108 Bullet Sorrow VR Apr 17, 2017 $19.9968% (87%)0 .. 20,0000%00:00 (00:00)
109 Neon Shadow Aug 25, 2016 $4.99N/A (N/A)0 .. 20,0000%00:00 (00:00)
110 Sang-Froid - Tales of Werewolves Apr 5, 2013 Free68% (87%/79%)200,000 .. 500,0000.18%05:59 (01:59)
111 Spooky Cats Jun 4, 2015 $0.8968% (87%)20,000 .. 50,0000%00:00 (00:00)
112 Shadow Blade: Reload Aug 10, 2015 $14.9968% (87%/70%)20,000 .. 50,0000%00:00 (00:00)
113 Blacksea Odyssey Jun 1, 2016 $9.9968% (87%/74%)20,000 .. 50,0000%00:00 (00:00)
114 Arcane Sorcery Sep 15, 2015 $4.99N/A (N/A)0 .. 20,0000%00:00 (00:00)
115 The Haunted: Hells Reach Oct 24, 2011 $8.9965% (86%/51%)50,000 .. 100,0000%00:00 (00:00)
116 N2O: Nitrous Oxide Jun 29, 2015 $4.99N/A (N/A)0 .. 20,0000%00:00 (00:00)
117 NOBUNAGA'S AMBITION: Souzou (Traditional Chinese version) Aug 2014 $24.9965% (86%)20,000 .. 50,00013.33%17:31 (11:40)
118 Ballistic Tanks Sep 20, 2016 $4.9965% (86%)0 .. 20,00015.38%00:41 (00:27)
119 Super Chibi Knight Jun 24, 2015 $4.9965% (86%)20,000 .. 50,0000%00:00 (00:00)
120 Civilization IV: Warlords Jul 24, 2006 $4.9965% (86%/84%)1,000,000 .. 2,000,0000%00:00 (00:00)
121 Meltdown Jun 5, 2014 $6.9965% (86%)50,000 .. 100,0000.78%01:36 (00:32)
122 Ghost Master Dec 21, 2006 $4.9965% (86%/81%)100,000 .. 200,0001.42%00:54 (00:54)
123 Rush for Berlin Gold Oct 29, 2009 $4.9965% (86%/76%)20,000 .. 50,0000%00:00 (00:00)
124 Time Rifters Oct 21, 2014 $9.9965% (86%)0 .. 20,0000%00:00 (00:00)
125 Star Ruler Sep 20, 2010 $9.9965% (86%)100,000 .. 200,0000%00:00 (00:00)
126 Executive Assault Jul 17, 2015 $12.9965% (86%)20,000 .. 50,0000%00:00 (00:00)
127 Slash or Die Jun 3, 2016 $1.4965% (86%)50,000 .. 100,0000.85%02:14 (01:29)
128 VelocityUltra Dec 12, 2013 $9.9965% (86%)50,000 .. 100,0000.64%06:16 (02:05)
129 Age of Wonders Shadow Magic Oct 2010 $2.4965% (86%/82%)100,000 .. 200,0000%00:00 (00:00)
130 Act of War: Direct Action Mar 12, 2008 $2.9962% (85%/82%)20,000 .. 50,0000%00:00 (00:00)
131 ENSLAVED: Odyssey to the West Premium Edition Oct 24, 2013 $19.9962% (85%/70%)200,000 .. 500,0000%00:00 (00:00)
132 Dustoff Heli Rescue Mar 6, 2015 $3.9962% (85%)20,000 .. 50,0000%00:00 (00:00)
133 Interloper May 21, 2015 Free62% (85%/77%)50,000 .. 100,0001.15%03:30 (02:47)
134 ShootMania Storm Apr 10, 2013 $19.9962% (85%/76%)50,000 .. 100,0000%00:00 (00:00)
135 Steel Rain Dec 3, 2015 $9.9962% (85%)0 .. 20,0001.56%03:25 (01:08)
136 Legend (1994) Apr 1, 1994 $2.24N/A (N/A)0 .. 20,0000%00:00 (00:00)
137 Last Knight: Rogue Rider Edition Oct 3, 2014 $7.9960% (84%)20,000 .. 50,0000%00:00 (00:00)
138 Fat Chicken Dec 4, 2014 $9.99N/A (N/A)0 .. 20,0000%00:00 (00:00)
139 CRYPTARK Jun 20, 2017 $14.9960% (84%/80%)50,000 .. 100,0000%00:00 (00:00)
140 Western 1849 Reloaded Feb 10, 2017 $4.99N/A (N/A)0 .. 20,0000%00:00 (00:00)
141 The Men of Yoshiwara: Kikuya Oct 15, 2015 $29.9960% (84%)0 .. 20,0000%00:00 (00:00)
142 Delta Force 2 Jun 18, 2009 $4.9960% (84%)50,000 .. 100,0000%00:00 (00:00)
143 Demons with Shotguns Apr 25, 2016 $9.99N/A (N/A)0 .. 20,0003.92%01:46 (00:38)
144 Foresight Nov 28, 2014 $4.99N/A (N/A)0 .. 20,0000%00:00 (00:00)
145 Battle Group 2 Jun 13, 2014 $7.9960% (84%)50,000 .. 100,0000%00:00 (00:00)
146 Rooks Keep Dec 5, 2014 $7.9960% (84%)20,000 .. 50,0000%00:00 (00:00)
147 Gurgamoth Feb 16, 2016 $4.9960% (84%)50,000 .. 100,0000.67%00:30 (00:10)
148 NOBUNAGA'S AMBITION: Sphere of Influence Sep 1, 2015 $59.9957% (83%/70%)20,000 .. 50,0007.69%16:43 (05:34)
149 Advanced Tactics Gold Aug 15, 2014 $29.9957% (83%)0 .. 20,0000%00:00 (00:00)
150 Sudden Strike 2 Gold Aug 30, 2002 $5.9957% (83%)20,000 .. 50,0000%00:00 (00:00)
151 Ace of Protectors Jun 27, 2016 $1.99N/A (N/A)0 .. 20,0001.59%01:08 (00:22)
152 Orbital Gear Aug 7, 2014 $9.9957% (83%/59%)200,000 .. 500,0000.41%02:12 (00:52)
153 Conflict Desert Storm May 28, 2012 $6.9957% (83%/56%)50,000 .. 100,0000%00:00 (00:00)
154 Galaxy Admirals Jan 17, 2017 $1.9957% (83%)50,000 .. 100,0000.75%00:12 (00:07)
155 Crush Your Enemies Jul 13, 2016 $9.9957% (83%/63%)20,000 .. 50,0000%00:00 (00:00)
156 GIBZ Apr 7, 2017 $7.9957% (83%)0 .. 20,0005.56%04:05 (01:21)
157 Eador: Genesis Oct 14, 2013 $5.9957% (83%)50,000 .. 100,0000.7%29:32 (09:50)
158 After The End: The Harvest Jun 2, 2017 $4.99N/A (N/A)20,000 .. 50,0000%00:00 (00:00)
159 Disciples Sacred Lands Gold Oct 7, 2014 $7.9955% (82%)20,000 .. 50,0000%00:00 (00:00)
160 PixelJunk Shooter Ultimate Oct 21, 2015 $9.9955% (82%)20,000 .. 50,0001.89%00:32 (00:10)
161 Weapon of Choice Sep 23, 2015 $4.99N/A (N/A)0 .. 20,0000%00:00 (00:00)
162 Shadow Ops: Red Mercury Jul 2, 2014 $6.9955% (82%/61%)20,000 .. 50,0000%00:00 (00:00)
163 She Wants Me Dead May 13, 2016 $7.9955% (82%)0 .. 20,0000%00:00 (00:00)
164 Square Brawl Oct 22, 2015 $4.9955% (82%)0 .. 20,0000%00:00 (00:00)
165 TY the Tasmanian Tiger 4 Sep 17, 2015 $5.9955% (82%)0 .. 20,0000%00:00 (00:00)
166 Rack N Ruin Sep 1, 2015 $9.9955% (82%)0 .. 20,0000%00:00 (00:00)
167 Decisive Campaigns: The Blitzkrieg from Warsaw to Paris Jan 22, 2015 $39.99N/A (N/A)0 .. 20,0000%00:00 (00:00)
168 Bulletstorm: Full Clip Edition Apr 7, 2017 $39.9955% (82%/76%)50,000 .. 100,00026.42%03:27 (03:13)
169 rymdkapsel Jan 30, 2014 $7.9952% (81%/77%)0 .. 20,0000%00:00 (00:00)
170 Fleet Command Oct 26, 2006 $9.9952% (81%)50,000 .. 100,0000%00:00 (00:00)
171 Toadled Sep 22, 2016 $0.9952% (81%)50,000 .. 100,0000.6%02:55 (01:56)
172 Graviteam Tactics: Operation Star Feb 11, 2014 $29.9952% (81%)20,000 .. 50,0000%00:00 (00:00)
173 Jim Power -The Lost Dimension Dec 10, 1993 $1.99N/A (N/A)0 .. 20,0000%00:00 (00:00)
174 Concealed Intent Aug 2, 2016 $14.99N/A (N/A)0 .. 20,0000%00:00 (00:00)
175 htoL#NiQ: The Firefly Diary / htoL#NiQ-ホタルノニッキ- May 18, 2016 $9.9952% (81%)20,000 .. 50,0000%00:00 (00:00)
176 Blade Arcus from Shining: Battle Arena Jul 28, 2016 $29.9952% (81%)0 .. 20,0000%00:00 (00:00)
177 In Verbis Virtus Apr 3, 2015 $19.9952% (81%)50,000 .. 100,0001.85%01:17 (00:51)
178 Trigger Runners Mar 3, 2016 $1.9950% (80%)0 .. 20,0000%00:00 (00:00)
179 Cultures - 8th Wonder of the World Mar 26, 2015 $4.9950% (80%)50,000 .. 100,0000%00:00 (00:00)
180 Monday Night Combat Jan 24, 2011 $4.9950% (80%/82%)200,000 .. 500,0000%00:00 (00:00)
181 Klang Sep 22, 2016 $14.9950% (80%/71%)0 .. 20,0000%00:00 (00:00)
182 Bloodsports.TV Mar 30, 2015 $9.9950% (80%/69%)50,000 .. 100,0000.58%01:44 (00:34)
183 Legends of Callasia Jun 10, 2016 $14.9950% (80%)50,000 .. 100,0000%00:00 (00:00)
184 Anomaly 2 May 15, 2013 $14.9950% (80%/77%)200,000 .. 500,0000.2%00:01 (00:00)
185 Tiki Man Jun 4, 2015 $0.9950% (80%)20,000 .. 50,0000.64%07:47 (02:35)
186 Junk Jack Nov 30, 2016 $14.9950% (80%)0 .. 20,00010%00:50 (00:16)
187 Interplanetary May 12, 2015 N/A50% (80%)100,000 .. 200,0007.24%04:11 (04:09)
188 Run Rabbit Run Mar 31, 2016 $3.9950% (80%)0 .. 20,0001.79%01:31 (00:30)
189 Perimeter Apr 3, 2014 $3.9950% (80%/77%)20,000 .. 50,0000%00:00 (00:00)
190 Star Wolves 3: Civil War Mar 2, 2010 $4.9950% (80%)100,000 .. 200,0000%00:00 (00:00)
191 Fate of the World Feb 28, 2011 $9.9950% (80%/70%)50,000 .. 100,0000%00:00 (00:00)
192 Gun Metal Jan 16, 2014 $2.9950% (80%)200,000 .. 500,0000.77%02:40 (03:38)
193 Locoland Nov 22, 2003 $4.9950% (80%)0 .. 20,0006.67%53:08 (17:42)
194 ROD: Revolt Of Defense Aug 12, 2016 $0.9950% (80%)20,000 .. 50,0000%00:00 (00:00)
195 Fantasy Wars Aug 6, 2010 $4.9950% (80%/67%)50,000 .. 100,0000%00:00 (00:00)
196 Dominions 3: The Awakening Sep 10, 2013 $19.9950% (80%/82%)0 .. 20,0000%00:00 (00:00)
197 Ninjahtic Jul 6, 2015 $1.9950% (80%)0 .. 20,0000%00:00 (00:00)
198 Conquest of Elysium 3 Oct 24, 2012 $9.9950% (80%)20,000 .. 50,0000%00:00 (00:00)
199 Child Of Ault Jan 24, 2017 $9.99N/A (N/A)0 .. 20,0000%00:00 (00:00)
200 Hail to the King: Deathbat Oct 30, 2014 $5.9950% (80%)0 .. 20,0000%00:00 (00:00)
201 Envoy Mar 17, 2016 $4.9950% (80%)50,000 .. 100,0000%00:00 (00:00)
202 Age of Gladiators Feb 25, 2016 $9.9950% (80%)20,000 .. 50,0000%00:00 (00:00)
203 7,62 High Calibre Apr 30, 2014 $4.9950% (80%)20,000 .. 50,0000%00:00 (00:00)
204 Making History: The Calm & the Storm Mar 13, 2007 $4.9950% (80%/70%)50,000 .. 100,0000%00:00 (00:00)
205 Demolition Inc. Sep 19, 2011 $5.9950% (80%)50,000 .. 100,0000%00:00 (00:00)
206 Age of Wonders Oct 2010 $1.4950% (80%)100,000 .. 200,0000%00:00 (00:00)
207 Enemy Mind Jun 6, 2014 $9.9950% (80%)200,000 .. 500,0000%00:00 (00:00)
208 Supreme Ruler 2020 Gold Jul 9, 2009 $9.9950% (80%/65%)50,000 .. 100,0000%00:00 (00:00)
209 Zeno Clash 2 Apr 30, 2013 $14.9948% (79%)200,000 .. 500,0000.77%03:04 (02:02)
210 Caster Mar 19, 2009 $1.9948% (79%)200,000 .. 500,0000.16%03:12 (01:04)
211 Tank Destroyer Mar 9, 2017 $2.9948% (79%)20,000 .. 50,0002.22%03:12 (02:07)
212 Zombie Party Jun 10, 2016 $9.9948% (79%)100,000 .. 200,0004.88%02:42 (01:41)
213 Protoshift Jan 15, 2016 $0.9948% (79%)0 .. 20,0000%00:00 (00:00)
214 Fortified Feb 3, 2016 $14.9948% (79%)500,000 .. 1,000,0002.02%03:56 (03:25)
215 Afghanistan '11 Mar 23, 2017 $29.9948% (79%)0 .. 20,0000%00:00 (00:00)
216 Battle Mages: Sign of Darkness Jul 24, 2014 $4.9948% (79%)0 .. 20,0000%00:00 (00:00)
217 David. Feb 16, 2015 $1.9948% (79%)50,000 .. 100,0000%00:00 (00:00)
218 TASTEE: Lethal Tactics May 10, 2016 $14.9948% (79%)20,000 .. 50,0000%00:00 (00:00)
219 Blue Effect VR Sep 29, 2016 $14.9948% (79%)0 .. 20,0000%00:00 (00:00)
220 Defense Zone 3 Ultra HD Dec 14, 2016 $2.9948% (79%)0 .. 20,0000%00:00 (00:00)
221 TRON RUN/r Feb 16, 2016 $19.9948% (79%)0 .. 20,0000%00:00 (00:00)
222 Nuclear Dawn Sep 26, 2011 $9.9948% (79%/71%)200,000 .. 500,0000.2%00:05 (00:01)
223 Ironcast Mar 26, 2015 $14.9948% (79%/75%)20,000 .. 50,0000%00:00 (00:00)
224 Gatling Gears Aug 30, 2011 $9.9948% (79%)20,000 .. 50,0000%00:00 (00:00)
225 Vietnam ‘65 Mar 5, 2015 $9.9946% (78%/81%)0 .. 20,0003.85%15:17 (05:05)
226 Deadly 30 Jan 8, 2014 $4.9946% (78%)100,000 .. 200,0000.32%02:50 (00:56)
227 Star Realms Mar 8, 2016 Free46% (78%)100,000 .. 200,0000%00:00 (00:00)
228 Starscape Nov 3, 2008 $7.9946% (78%)20,000 .. 50,0000%00:00 (00:00)
229 Dead Rising 2: Off the Record Oct 11, 2011 $19.9946% (78%/66%)200,000 .. 500,0000.69%01:05 (00:19)
230 Advent Rising Sep 14, 2006 $9.9946% (78%/70%)50,000 .. 100,0000%00:00 (00:00)
231 Zombie Killtime Aug 4, 2015 $1.99N/A (N/A)0 .. 20,0000%00:00 (00:00)
232 Umihara Kawase Shun: Steam Edition Nov 24, 2015 $11.99N/A (N/A)0 .. 20,0000%00:00 (00:00)
233 Warhammer 40,000: Armageddon Nov 26, 2014 $39.9946% (78%/68%)20,000 .. 50,0000%00:00 (00:00)
234 The Legend of Dark Witch Dec 1, 2015 $4.9946% (78%)20,000 .. 50,0000%00:00 (00:00)
235 Aeon Command Jul 3, 2014 $0.7446% (78%)20,000 .. 50,0000%00:00 (00:00)
236 King of Dragon Pass Jul 28, 2015 $11.9946% (78%)20,000 .. 50,0000%00:00 (00:00)
237 Making History II: The War of the World Aug 27, 2010 $14.9946% (78%/38%)20,000 .. 50,0000%00:00 (00:00)
238 PAC-MAN and the Ghostly Adventures Oct 29, 2013 $19.9946% (78%)0 .. 20,0000%00:00 (00:00)
239 Bet On Soldier Dec 5, 2014 $7.9946% (78%)20,000 .. 50,0000%00:00 (00:00)
240 Pharaonic Apr 28, 2016 $14.9946% (78%)20,000 .. 50,0003.7%00:33 (00:11)
241 Battlezone Gold Edition May 11, 2017 $34.9946% (78%)0 .. 20,0000%00:00 (00:00)
242 Strike Suit Zero: Director's Cut Apr 8, 2014 $19.9946% (78%)20,000 .. 50,0001.92%00:03 (00:01)
243 Mold on Pizza Sep 25, 2015 $5.9946% (78%)0 .. 20,0000%00:00 (00:00)
244 Olympia Rising Jul 23, 2015 $4.9944% (77%)0 .. 20,0000%00:00 (00:00)
245 Anomaly Warzone Earth Mobile Campaign Nov 6, 2013 $4.9944% (77%)100,000 .. 200,0000%00:00 (00:00)
246 Curse of the Crescent Isle DX Aug 21, 2015 $4.9944% (77%)0 .. 20,0000%00:00 (00:00)
247 Velocity 2X Aug 19, 2015 $19.9944% (77%)50,000 .. 100,0000%00:00 (00:00)
248 Mysterium: A Psychic Clue Game Jan 12, 2017 $6.9944% (77%)50,000 .. 100,0000.53%00:01 (00:00)
249 The Political Machine 2016 Feb 4, 2016 $9.9944% (77%)50,000 .. 100,0000.73%00:14 (00:04)
250 Sky Gamblers: Storm Raiders Jan 7, 2015 $9.9944% (77%)0 .. 20,0000%00:00 (00:00)
251 Starchaser: Priestess of the Night Sky Jul 24, 2015 $3.29N/A (N/A)0 .. 20,0000%00:00 (00:00)
252 Heroes of Might & Magic V: Hammers of Fate Oct 10, 2008 $9.9944% (77%/66%)200,000 .. 500,0000.55%00:02 (00:00)
253 McDROID Sep 5, 2014 $9.9944% (77%)0 .. 20,0000%00:00 (00:00)
254 Dangerous Waters Feb 7, 2006 $14.9944% (77%/82%)50,000 .. 100,0000%00:00 (00:00)
255 A Blind Legend Apr 7, 2016 $6.9944% (77%)0 .. 20,0000%00:00 (00:00)
256 Rocket Knight May 11, 2010 $14.9944% (77%/63%)0 .. 20,0000%00:00 (00:00)
257 Civil War II Jul 3, 2014 $39.9942% (76%)0 .. 20,0000%00:00 (00:00)
258 BloodRayne Sep 14, 2006 $9.9942% (76%/65%)50,000 .. 100,0000%00:00 (00:00)
259 Corgi Warlock Dec 3, 2015 $1.9942% (76%)20,000 .. 50,0000%00:00 (00:00)
260 Victory At Sea Aug 8, 2014 $24.9942% (76%)20,000 .. 50,0000%00:00 (00:00)
261 Fist Puncher Jun 21, 2013 $9.9942% (76%/73%)20,000 .. 50,0000%00:00 (00:00)
262 Cashtronauts Aug 31, 2016 $2.9942% (76%)0 .. 20,0000%00:00 (00:00)
263 Z Jul 4, 2014 $1.4942% (76%)100,000 .. 200,0004.19%09:30 (06:22)
264 Chaser Jul 16, 2010 $4.9942% (76%/66%)100,000 .. 200,0000%00:00 (00:00)
265 Warlords Battlecry III May 17, 2004 $9.9942% (76%/73%)0 .. 20,0000%00:00 (00:00)
266 GEARGUNS Tank offensive Sep 22, 2016 $7.9942% (76%)20,000 .. 50,0001.39%00:47 (00:15)
267 A.R.E.S. Extinction Agenda EX Oct 3, 2014 $9.9942% (76%)0 .. 20,0002.94%05:33 (01:51)
268 Extravaganza Rising Jul 21, 2016 N/AN/A (N/A)20,000 .. 50,0000%00:00 (00:00)
269 Deadlings: Rotten Edition Nov 11, 2014 $3.9942% (76%)50,000 .. 100,0000%00:00 (00:00)
270 Painkiller Hell & Damnation Oct 31, 2012 $19.9942% (76%/64%)500,000 .. 1,000,0000.87%01:33 (01:59)
271 Perimeter: Emperor's Testament Aug 29, 2006 $3.99N/A (N/A/72%)20,000 .. 50,0000%00:00 (00:00)
272 Riddled Corpses Jun 2, 2015 $7.9940% (75%)20,000 .. 50,0000%00:00 (00:00)
273 Commander: The Great War Jul 25, 2014 $29.9940% (75%)0 .. 20,00020%00:03 (00:01)
274 Albino Lullaby: Episode 1 Sep 15, 2015 $9.9940% (75%)20,000 .. 50,0000%00:00 (00:00)
275 WARSHIFT Oct 12, 2016 $12.9940% (75%)20,000 .. 50,0000%00:00 (00:00)
276 Heaven Forest NIGHTS Mar 13, 2017 $0.99N/A (N/A)100,000 .. 200,0000.58%01:22 (01:21)
277 Master Reboot Oct 29, 2013 $14.9940% (75%/59%)50,000 .. 100,0000%00:00 (00:00)
278 FIVE: Champions of Canaan Sep 27, 2016 $3.9940% (75%)0 .. 20,0000%00:00 (00:00)
279 The Superfluous May 19, 2017 $4.99N/A (N/A)0 .. 20,0003.13%01:55 (00:38)
280 Pick a Hero Jun 9, 2016 $0.99N/A (N/A)0 .. 20,0000%00:00 (00:00)
281 Rocketbirds 2 Evolution Jan 26, 2017 $9.9940% (75%)20,000 .. 50,0000%00:00 (00:00)
282 CivCity: Rome Apr 6, 2007 $9.9940% (75%/67%)50,000 .. 100,0000%00:00 (00:00)
283 Monster Monpiece Mar 14, 2017 $19.9940% (75%)0 .. 20,0001.69%05:26 (01:48)
284 BossConstructor Oct 24, 2016 $14.9940% (75%)0 .. 20,0000%00:00 (00:00)
285 Onechanbara Z2: Chaos Jun 2, 2016 $39.9940% (75%)0 .. 20,0000%00:00 (00:00)
286 Hunting Unlimited 2008 Jan 29, 2008 $9.99N/A (N/A)20,000 .. 50,0000%00:00 (00:00)
287 Livelock Aug 30, 2016 $9.9940% (75%/73%)20,000 .. 50,0000%00:00 (00:00)
288 Star Hammer: The Vanguard Prophecy Jun 4, 2015 $19.9940% (75%/69%)0 .. 20,0000%00:00 (00:00)
289 Platformines Mar 28, 2014 $9.9940% (75%/67%)100,000 .. 200,0000.5%00:11 (00:03)
290 Vector Strain Dec 9, 2015 $4.9940% (75%)20,000 .. 50,0000%00:00 (00:00)
291 Heroes of Arca Feb 16, 2017 Free40% (75%)0 .. 20,0000%00:00 (00:00)
292 Ubersoldier II Mar 25, 2014 $9.9940% (75%/62%)20,000 .. 50,0000%00:00 (00:00)
293 Spirits of Xanadu Mar 26, 2015 $4.9938% (74%)20,000 .. 50,0002.5%01:30 (00:38)
294 Codex of Victory Mar 16, 2017 $14.9938% (74%)0 .. 20,0000%00:00 (00:00)
295 LEGO Indiana Jones 2: The Adventure Continues Feb 18, 2010 $19.9938% (74%/66%)50,000 .. 100,0000%00:00 (00:00)
296 Smell Of Death Jul 4, 2016 $9.9938% (74%)0 .. 20,0000%00:00 (00:00)
297 FEIST Jul 23, 2015 $9.9938% (74%/65%)20,000 .. 50,0002.44%01:36 (00:32)
298 Phoning Home Feb 7, 2017 $19.9938% (74%/61%)20,000 .. 50,0002.99%07:34 (03:40)
299 Battle Time Sep 29, 2016 $0.9938% (74%)50,000 .. 100,0000%00:00 (00:00)
300 Sid Meier’s Ace Patrol Aug 27, 2013 $4.9938% (74%)500,000 .. 1,000,0000.18%00:44 (00:14)
301 Distant Worlds: Universe May 23, 2014 $59.9938% (74%/81%)50,000 .. 100,0000%00:00 (00:00)
302 AirMech Command Mar 8, 2017 $19.9938% (74%)0 .. 20,0000%00:00 (00:00)
303 Bubsy Two-Fur Jan 1, 1993 $4.9938% (74%)0 .. 20,0002.7%00:24 (00:08)
304 The Aquatic Adventure of the Last Human Jan 19, 2016 $9.9937% (73%/76%)0 .. 20,0004%01:08 (00:22)
305 rooMaze Mar 3, 2017 $1.9937% (73%)100,000 .. 200,0000.42%01:00 (00:20)
306 Vampire of the Sands Jul 17, 2015 $4.9937% (73%)20,000 .. 50,0000%00:00 (00:00)
307 Battle Fleet 2 Nov 20, 2014 $14.9937% (73%)20,000 .. 50,0000%00:00 (00:00)
308 Smithy Jun 3, 2016 $3.99N/A (N/A)50,000 .. 100,0000%00:00 (00:00)
309 Retrovirus Jan 31, 2013 $9.9937% (73%/70%)20,000 .. 50,0000%00:00 (00:00)
310 Alarameth TD Jun 23, 2015 $4.99N/A (N/A)0 .. 20,0000%00:00 (00:00)
311 Making History: The Great War Jan 29, 2015 $29.9937% (73%)20,000 .. 50,0000%00:00 (00:00)
312 Banzai Escape Mar 16, 2016 $5.9937% (73%)0 .. 20,0000%00:00 (00:00)
313 Supreme Ruler Ultimate Oct 17, 2014 $19.9937% (73%)20,000 .. 50,0004.35%00:21 (00:07)
314 Death by Game Show Jan 22, 2016 $9.9937% (73%)20,000 .. 50,0001.56%02:14 (00:44)
315 Viktor Jun 13, 2014 $0.7937% (73%)20,000 .. 50,0000%00:00 (00:00)
316 Gold Rush! Anniversary Nov 7, 2014 $5.99N/A (N/A)100,000 .. 200,0000.26%02:27 (00:49)
317 Divinity: Dragon Commander Aug 6, 2013 $39.9937% (73%)200,000 .. 500,0000.63%00:58 (00:38)
318 Othello Mar 19, 2015 $9.9937% (73%)0 .. 20,0000%00:00 (00:00)
319 TableTop Soccer Apr 22, 2016 $0.9937% (73%)0 .. 20,0003.45%04:03 (01:21)
320 Hot Tin Roof: The Cat That Wore A Fedora Feb 20, 2015 $14.9937% (73%/66%)100,000 .. 200,0000.53%04:06 (01:22)
321 VRZ: Torment May 18, 2017 $9.9937% (73%)0 .. 20,0000%00:00 (00:00)
322 Cast of the Seven Godsends - Redux Jul 20, 2015 $9.9935% (72%)20,000 .. 50,0000.93%00:15 (00:05)
323 Fatal Fight Jun 10, 2016 $2.9935% (72%)0 .. 20,0000%00:00 (00:00)
324 Warp Mar 21, 2012 $9.9935% (72%)20,000 .. 50,0000%00:00 (00:00)
325 Cross of the Dutchman Sep 10, 2015 $8.9935% (72%/59%)20,000 .. 50,0000%00:00 (00:00)
326 The Last Federation Apr 18, 2014 $19.9935% (72%/72%)50,000 .. 100,0000.75%01:08 (00:22)
327 Zoo Empire Aug 1, 2004 $6.99N/A (N/A/59%)0 .. 20,0000%00:00 (00:00)
328 Tom Clancy's EndWar Feb 25, 2009 $9.9935% (72%/68%)50,000 .. 100,0001.39%00:01 (00:00)
329 Deadnaut Dec 8, 2014 $9.9935% (72%)0 .. 20,0000%00:00 (00:00)
330 Cuban Missile Crisis Mar 25, 2015 $4.9935% (72%)20,000 .. 50,0000%00:00 (00:00)
331 Pike and Shot : Campaigns Aug 13, 2015 $39.9935% (72%)0 .. 20,0000%00:00 (00:00)
332 King Arthur - The Role-playing Wargame Nov 24, 2009 $9.9935% (72%)200,000 .. 500,0000%00:00 (00:00)
333 Wyv and Keep: The Temple of the Lost Idol Aug 8, 2014 $14.9935% (72%)20,000 .. 50,0000%00:00 (00:00)
334 Pongo May 14, 2015 $0.9935% (72%)50,000 .. 100,0000.74%01:31 (00:30)
335 Rise & Shine Jan 13, 2017 $14.9935% (72%)20,000 .. 50,0000%00:00 (00:00)
336 Rex Rocket Aug 5, 2014 $4.9935% (72%)20,000 .. 50,0000%00:00 (00:00)
337 Panzer Tactics HD May 22, 2014 $9.9935% (72%/69%)20,000 .. 50,0000%00:00 (00:00)
338 Auro: A Monster-Bumping Adventure Apr 13, 2016 $6.9935% (72%)0 .. 20,0000%00:00 (00:00)
339 Lost Planet: Extreme Condition Jun 26, 2007 $14.9935% (72%/66%)200,000 .. 500,0000.63%00:05 (00:01)
340 Airship Dragoon Aug 26, 2014 $19.99N/A (N/A)0 .. 20,0000%00:00 (00:00)
341 REDCON Apr 22, 2016 $5.9933% (71%)0 .. 20,0000%00:00 (00:00)
342 Zombie Camp Aug 1, 2016 $1.99N/A (N/A)0 .. 20,0000%00:00 (00:00)
343 Elliot Quest Nov 10, 2014 $9.9933% (71%)20,000 .. 50,0001.41%00:19 (00:06)
344 A.R.E.S.: Extinction Agenda Jan 19, 2011 $4.9933% (71%/68%)100,000 .. 200,0000%00:00 (00:00)
345 Disney Planes Oct 6, 2014 $19.99N/A (N/A)0 .. 20,0000%00:00 (00:00)
346 Revolution Under Siege Gold Jul 2, 2015 $24.9933% (71%)0 .. 20,0000%00:00 (00:00)
347 Civil War: Battle of Petersburg Feb 8, 2017 $0.99N/A (N/A)0 .. 20,0000%00:00 (00:00)
348 Sengoku Jidai: Shadow of the Shogun May 19, 2016 $29.9933% (71%/80%)0 .. 20,0000%00:00 (00:00)
349 Elven Legacy Apr 7, 2009 $4.9933% (71%/71%)50,000 .. 100,0000%00:00 (00:00)
350 There Came an Echo Feb 24, 2015 $14.9933% (71%/58%)20,000 .. 50,0001.59%01:38 (00:32)
351 BitMaster Oct 12, 2016 $2.9933% (71%)100,000 .. 200,0000.29%00:36 (00:24)
352 Strategy & Tactics: Wargame Collection Apr 22, 2016 $9.9932% (70%)20,000 .. 50,0001.89%01:34 (01:02)
353 Wildlife Park 2 - Crazy Zoo Jul 17, 2014 $3.99N/A (N/A)20,000 .. 50,0000%00:00 (00:00)
354 Space Colony: Steam Edition Apr 30, 2015 $14.9932% (70%/74%)20,000 .. 50,0001.32%00:02 (00:00)
355 Jagged Alliance 2 - Wildfire Nov 16, 2012 $6.9932% (70%)200,000 .. 500,0001.83%06:51 (06:40)
356 Brigade E5: New Jagged Union Apr 30, 2014 $3.9932% (70%/41%)0 .. 20,0000%00:00 (00:00)
357 Pigmentone Jul 8, 2016 $1.99N/A (N/A)0 .. 20,0003.57%01:25 (00:28)
358 Lux Delux May 1, 2015 $9.9932% (70%)20,000 .. 50,0000%00:00 (00:00)
359 The Nightmare Cooperative Jul 16, 2014 $4.9930% (69%)50,000 .. 100,0000%00:00 (00:00)
360 Incandescent Jun 30, 2015 $0.9930% (69%)20,000 .. 50,0000%00:00 (00:00)
361 Little King's Story Aug 5, 2016 $19.9930% (69%/62%)0 .. 20,0000%00:00 (00:00)
362 Warhammer 40,000: Armageddon - Da Orks Aug 18, 2016 $19.99N/A (N/A)0 .. 20,0000%00:00 (00:00)
363 1775: Rebellion Sep 29, 2016 $24.99N/A (N/A)0 .. 20,00012.96%04:28 (05:48)
364 Collapse Apr 11, 2014 $19.9930% (69%)20,000 .. 50,0000%00:00 (00:00)
365 Guns n Zombies Oct 30, 2014 $7.9930% (69%)100,000 .. 200,0000.98%01:11 (00:41)
366 UnSummoning: the Spectral Horde Dec 21, 2015 $3.99N/A (N/A)0 .. 20,0000%00:00 (00:00)
367 Sol 0: Mars Colonization Jan 15, 2016 $3.9930% (69%)20,000 .. 50,0000%00:00 (00:00)
368 Spud's Quest Jul 31, 2014 $7.99N/A (N/A)0 .. 20,0000%00:00 (00:00)
369 Warrior Kings Apr 24, 2014 $9.9930% (69%/73%)0 .. 20,0000%00:00 (00:00)
370 Toren May 11, 2015 $9.9929% (68%/57%)50,000 .. 100,0001.24%05:13 (02:31)
371 YAIBA: NINJA GAIDEN Z Mar 21, 2014 $29.9929% (68%/49%)20,000 .. 50,0000%00:00 (00:00)
372 FIVE: Guardians of David Nov 24, 2015 $9.9929% (68%/66%)20,000 .. 50,0000%00:00 (00:00)
373 Zombie City Defense 2 Aug 19, 2016 $9.9929% (68%)0 .. 20,0000%00:00 (00:00)
374 ManaCollect Apr 17, 2015 $6.9929% (68%)0 .. 20,0000%00:00 (00:00)
375 RISK: Factions Mar 8, 2011 $9.9929% (68%/77%)50,000 .. 100,0000%00:00 (00:00)
376 Space Food Truck Mar 25, 2016 $9.9929% (68%)20,000 .. 50,0000%00:00 (00:00)
377 The Hive Aug 25, 2016 $9.9929% (68%)20,000 .. 50,0000%00:00 (00:00)
378 Chainsaw Warrior Oct 7, 2013 $4.9927% (67%)100,000 .. 200,0000%00:00 (00:00)
379 Kill The Plumber Dec 31, 2015 $4.9927% (67%)0 .. 20,0000%00:00 (00:00)
380 Mad Combat Marines Jul 13, 2016 $0.9927% (67%)20,000 .. 50,0001.09%01:01 (00:20)
381 Royal Defense Nov 10, 2014 $4.9927% (67%)50,000 .. 100,0000.72%01:18 (00:51)
382 7th Legion Oct 23, 2014 $6.9927% (67%)0 .. 20,0000%00:00 (00:00)
383 Alea Jacta Est Nov 4, 2014 $24.9927% (67%)0 .. 20,0000%00:00 (00:00)
384 Theatre of War 2: Africa 1943 Jul 9, 2010 $4.9927% (67%/63%)100,000 .. 200,0000%00:00 (00:00)
385 Nomad Fleet Apr 19, 2016 $9.9927% (67%)0 .. 20,0000%00:00 (00:00)
386 Zafehouse: Diaries Sep 6, 2013 $1.9927% (67%)50,000 .. 100,0000%00:00 (00:00)
387 8-Bit Commando Jun 2, 2014 $2.9927% (67%)50,000 .. 100,0000.62%00:15 (00:05)
388 Survivor Squad: Gauntlets Nov 16, 2015 $4.9927% (67%)20,000 .. 50,0000%00:00 (00:00)
389 Bedlam Oct 13, 2015 $12.9927% (67%/54%)100,000 .. 200,0000.31%04:02 (01:20)
390 Stonerid Aug 15, 2014 $4.9927% (67%)50,000 .. 100,0000%00:00 (00:00)
391 Scourge: Outbreak Apr 2, 2014 $7.9926% (66%)100,000 .. 200,0000%00:00 (00:00)
392 1849 May 8, 2014 $14.9926% (66%)20,000 .. 50,0000%00:00 (00:00)
393 Sengoku Sep 15, 2011 $9.9926% (66%/70%)100,000 .. 200,0000%00:00 (00:00)
394 Disney Pirates of the Caribbean: At Worlds End Oct 6, 2014 $19.9926% (66%)0 .. 20,0000%00:00 (00:00)
395 March of the Eagles Feb 18, 2013 $19.9926% (66%/71%)50,000 .. 100,0000%00:00 (00:00)
396 Fair Strike Feb 5, 2004 $3.99N/A (N/A/56%)0 .. 20,0000%00:00 (00:00)
397 Commander Cool 2 Dec 17, 2015 $2.9926% (66%)20,000 .. 50,0000%00:00 (00:00)
398 Sky To Fly: Faster Than Wind Mar 25, 2016 $3.9926% (66%)0 .. 20,0000%00:00 (00:00)
399 Urban Pirate Jun 17, 2016 $6.99N/A (N/A)0 .. 20,0000%00:00 (00:00)
400 The Living Dungeon Nov 2, 2015 $12.9926% (66%)0 .. 20,0000%00:00 (00:00)
401 Men of War: Condemned Heroes Apr 12, 2012 $7.9926% (66%/57%)100,000 .. 200,0000.61%05:50 (01:56)
402 Toy Odyssey: The Lost and Found Sep 20, 2016 $14.9926% (66%/66%)50,000 .. 100,0000.47%01:35 (00:31)
403 Ground Breakers Jun 15, 2016 $4.99N/A (N/A)0 .. 20,0000%00:00 (00:00)
404 Frozen Synapse Prime Nov 14, 2014 $24.9924% (65%/83%)100,000 .. 200,0000%00:00 (00:00)
405 Marauder Apr 4, 2014 $9.9924% (65%)20,000 .. 50,0000%00:00 (00:00)
406 Theatre of War 2: Kursk 1943 Jul 9, 2010 $4.9924% (65%)50,000 .. 100,0000%00:00 (00:00)
407 Zombie Tycoon 2: Brainhov's Revenge Dec 9, 2013 $4.9924% (65%)50,000 .. 100,0000%00:00 (00:00)
408 Devil's Dare 悪魔の挑戦 Oct 21, 2014 $12.9924% (65%)20,000 .. 50,0000%00:00 (00:00)
409 Infinity Runner Jul 14, 2014 $6.9924% (65%/56%)0 .. 20,0000%00:00 (00:00)
410 Assassin’s Creed Chronicles: India Jan 12, 2016 $9.9924% (65%)20,000 .. 50,0001.75%08:37 (02:52)
411 Warlock 2: The Exiled Apr 10, 2014 $19.9923% (64%/73%)50,000 .. 100,0001.12%05:23 (01:47)
412 Link Apr 22, 2016 $4.99N/A (N/A)0 .. 20,0000%00:00 (00:00)
413 Zoo Rampage Jul 9, 2014 $3.9923% (64%)0 .. 20,0000%00:00 (00:00)
414 A Game of Dwarves Oct 23, 2012 $9.9923% (64%/60%)50,000 .. 100,0000%00:00 (00:00)
415 Kaiju-A-GoGo Apr 23, 2015 $9.9923% (64%)20,000 .. 50,0000%00:00 (00:00)
416 Hunters Of The Dead Sep 4, 2014 $4.9923% (64%)20,000 .. 50,0000%00:00 (00:00)
417 Rise: Battle Lines Nov 17, 2015 $1.9923% (64%)0 .. 20,0000%00:00 (00:00)
418 SPACECOM Sep 17, 2014 $9.9923% (64%/68%)100,000 .. 200,0000%00:00 (00:00)
419 Beasts Battle Jun 15, 2016 $1.9923% (64%)0 .. 20,0000%00:00 (00:00)
420 Platypus II Aug 15, 2014 $0.6923% (64%)200,000 .. 500,0000.56%04:53 (06:29)
421 Quick Slick Deadly Sep 21, 2015 $1.9923% (64%)20,000 .. 50,0000%00:00 (00:00)
422 The Seven Years War (1756-1763) Oct 30, 2015 $19.9923% (64%)0 .. 20,0000%00:00 (00:00)
423 Double Dragon IV Jan 30, 2017 $6.9923% (64%/50%)0 .. 20,0000%00:00 (00:00)
424 Revenge of Roger Rouge Apr 22, 2016 $0.99N/A (N/A)20,000 .. 50,0003.36%04:07 (04:11)
425 My Super Tower 2 Jan 27, 2017 $0.99N/A (N/A)0 .. 20,00011.11%03:13 (02:42)
426 Pixel Boy and the Ever Expanding Dungeon May 30, 2014 $0.9922% (63%)20,000 .. 50,0000%00:00 (00:00)
427 Battle Worlds: Kronos Nov 4, 2013 $19.9922% (63%/71%)20,000 .. 50,0005.88%00:40 (00:13)
428 War, the Game Jan 12, 2015 $6.9922% (63%/65%)20,000 .. 50,0000%00:00 (00:00)
429 Port Royale 2 Jun 16, 2009 $4.9922% (63%/75%)50,000 .. 100,0000%00:00 (00:00)
430 Malebolgia May 6, 2015 $12.9922% (63%)20,000 .. 50,0000%00:00 (00:00)
431 Will Fight for Food: Super Actual Sellout: Game of the Hour Apr 22, 2015 $5.9922% (63%)0 .. 20,0000%00:00 (00:00)
432 Jagged Alliance: Crossfire Aug 24, 2012 $14.9922% (63%/63%)100,000 .. 200,0000%00:00 (00:00)
433 Hyperspace Pinball Sep 30, 2015 $2.99N/A (N/A)0 .. 20,0000%00:00 (00:00)
434 4089: Ghost Within Jan 9, 2015 $5.9921% (62%)0 .. 20,0000%00:00 (00:00)
435 Spirit of War Mar 12, 2015 $9.9921% (62%)20,000 .. 50,0000%00:00 (00:00)
436 Goblin Defenders: Steel‘n’ Wood Aug 21, 2013 $2.9921% (62%)20,000 .. 50,0001.25%02:32 (00:50)
437 Desert Ashes Nov 10, 2014 $4.9921% (62%)20,000 .. 50,0000%00:00 (00:00)
438 Sorcerer King: Rivals Sep 22, 2016 $14.9921% (62%)20,000 .. 50,0000%00:00 (00:00)
439 The Few Jun 18, 2014 $7.9921% (62%)20,000 .. 50,0000%00:00 (00:00)
440 Bombshell Jan 29, 2016 $34.9921% (62%)0 .. 20,0000%00:00 (00:00)
441 Supreme Ruler: Cold War Jul 29, 2011 $9.9920% (61%/63%)20,000 .. 50,0000%00:00 (00:00)
442 Disney Epic Mickey 2: The Power of Two Oct 6, 2014 $19.9920% (61%)0 .. 20,0000%00:00 (00:00)
443 Freight Tycoon Inc. Apr 3, 2014 $4.9920% (61%)20,000 .. 50,0000%00:00 (00:00)
444 To End All Wars Aug 29, 2014 $39.9920% (61%/71%)0 .. 20,0000%00:00 (00:00)
445 Flashback Oct 1, 2013 $9.9920% (61%)20,000 .. 50,0000%00:00 (00:00)
446 Men of War: Vietnam Sep 8, 2011 $7.9920% (61%/68%)100,000 .. 200,0000.96%00:44 (00:29)
447 Spice Road Apr 24, 2014 $19.9920% (61%)0 .. 20,0005.26%12:35 (04:11)
448 Battleplan: American Civil War Jul 4, 2014 $9.9920% (61%/66%)100,000 .. 200,0000.57%02:31 (02:30)
449 Legions of Steel Jul 16, 2015 $19.99N/A (N/A/64%)0 .. 20,0000%00:00 (00:00)
450 Gnumz: Masters of Defense Dec 21, 2015 $4.9920% (61%)20,000 .. 50,0000.33%04:30 (01:30)
451 Call of Duty: Black Ops - Mac Edition Sep 27, 2012 $19.9920% (61%)50,000 .. 100,0000%00:00 (00:00)
452 BattleLore: Command Mar 31, 2015 $6.9920% (61%)0 .. 20,0000%00:00 (00:00)
453 Overruled! Sep 15, 2015 $12.9919% (60%)20,000 .. 50,0000%00:00 (00:00)
454 Crazy Forest Jul 6, 2016 $4.9919% (60%)100,000 .. 200,0000%00:00 (00:00)
455 Skyshine's BEDLAM Sep 16, 2015 $19.9919% (60%/67%)20,000 .. 50,0000%00:00 (00:00)
456 Woolfe - The Red Hood Diaries Mar 17, 2015 $9.9919% (60%/55%)50,000 .. 100,0001.77%02:12 (01:22)
457 Stay Dead Evolution Feb 4, 2015 $5.9919% (60%)20,000 .. 50,0000%00:00 (00:00)
458 Patrician IV - Steam Special Edition Sep 17, 2010 $14.9919% (60%/66%)100,000 .. 200,0000%00:00 (00:00)
459 Disciples III - Renaissance Steam Special Edition Jul 16, 2010 $14.9919% (60%/56%)100,000 .. 200,0000%00:00 (00:00)
460 Purgatory Jun 22, 2016 $0.9919% (60%)200,000 .. 500,0000.14%02:42 (01:16)
461 Merchants of Kaidan Nov 10, 2014 $14.9919% (60%)100,000 .. 200,0000%00:00 (00:00)
462 Cemetery Warrior 3 Feb 3, 2017 $0.9919% (60%)50,000 .. 100,0000%00:00 (00:00)
463 Code of Princess Apr 14, 2016 $14.9919% (60%/53%)0 .. 20,0000%00:00 (00:00)
464 E.T. Armies Mar 3, 2016 $14.9919% (60%/54%)0 .. 20,0000%00:00 (00:00)
465 Ninjahtic Mind Tricks Jul 16, 2015 $1.99N/A (N/A)0 .. 20,0000%00:00 (00:00)
466 Super Helmets on Fire DX Ultra Edition Plus Alpha Feb 15, 2016 $0.99N/A (N/A)0 .. 20,0000%00:00 (00:00)
467 Close Combat - Panthers in the Fog Nov 19, 2012 $39.9917% (59%)0 .. 20,0000%00:00 (00:00)
468 Check vs Mate Aug 16, 2012 $19.9917% (59%/69%)0 .. 20,0000%00:00 (00:00)
469 Antisquad May 22, 2014 $5.9917% (59%)50,000 .. 100,0000%00:00 (00:00)
470 Prospekt Feb 18, 2016 $9.9917% (59%)20,000 .. 50,0003.33%01:31 (00:30)
471 Armada 2526 Gold Edition Feb 28, 2013 $19.9917% (59%/66%)20,000 .. 50,0000%00:00 (00:00)
472 7 Grand Steps: What Ancients Begat Jun 7, 2013 $19.9917% (59%)100,000 .. 200,0000.42%05:03 (01:41)
473 Quarantine Feb 9, 2017 $9.9917% (59%)0 .. 20,00011.11%00:15 (00:05)
474 NOBUNAGA'S AMBITION: Sphere of Influence - Ascension / 信長の野望・創造 戦国立志伝 Mar 23, 2016 $59.9917% (59%)50,000 .. 100,00012.5%09:36 (03:12)
475 Hybrid Wars Sep 29, 2016 $6.2417% (59%/54%)0 .. 20,0000%00:00 (00:00)
476 Heavy Fire: Afghanistan Aug 15, 2014 $2.9916% (58%)20,000 .. 50,0000%00:00 (00:00)
477 Wanderlust Adventures Aug 10, 2015 $9.9916% (58%)20,000 .. 50,0000%00:00 (00:00)
478 Colonial Conquest Jul 28, 2015 $9.9916% (58%)0 .. 20,0000%00:00 (00:00)
479 Adventure World Aug 2, 2016 $4.99N/A (N/A)0 .. 20,0000%00:00 (00:00)
480 Prophour23 Oct 22, 2014 $9.99N/A (N/A)0 .. 20,0000%00:00 (00:00)
481 Life in Bunker Feb 25, 2016 $15.9916% (58%)0 .. 20,0000%00:00 (00:00)
482 Sir! I'd Like To Report A Bug! Oct 19, 2015 $1.99N/A (N/A)0 .. 20,0000%00:00 (00:00)
483 Unearthed: Trail of Ibn Battuta - Episode 1 - Gold Edition Jan 3, 2014 $4.9916% (58%)20,000 .. 50,0000%00:00 (00:00)
484 Gates of Horizon Dec 18, 2014 $9.9916% (58%)0 .. 20,0005.88%03:20 (01:06)
485 Ceres Oct 16, 2015 $19.9916% (58%/74%)0 .. 20,0000%00:00 (00:00)
486 Dawn of Andromeda May 4, 2017 $29.9915% (57%/70%)0 .. 20,00014.29%00:10 (00:05)
487 Assault on Arnhem Mar 11, 2016 $9.99N/A (N/A)0 .. 20,00020%06:15 (09:05)
488 Defend Your Crypt Jul 21, 2016 $2.99N/A (N/A)0 .. 20,0000%00:00 (00:00)
489 VR Journey Dec 15, 2016 $0.5N/A (N/A)20,000 .. 50,0000%00:00 (00:00)
490 Horizon Feb 6, 2014 $7.4915% (56%)50,000 .. 100,0000%00:00 (00:00)
491 Delve Deeper Sep 24, 2010 $4.9915% (56%)50,000 .. 100,0000%00:00 (00:00)
492 Abalone Apr 23, 2014 $6.9915% (56%)0 .. 20,0000%00:00 (00:00)
493 Story Of the Survivor Feb 17, 2016 $4.99N/A (N/A)50,000 .. 100,0000%00:00 (00:00)
494 Rise of Venice Sep 27, 2013 $19.9915% (56%/66%)50,000 .. 100,0000%00:00 (00:00)
495 Grim Seventh Jan 20, 2017 FreeN/A (N/A)0 .. 20,0000%00:00 (00:00)
496 DreamBreak Jul 21, 2016 $2.0915% (56%/46%)0 .. 20,0003.45%06:01 (02:00)
497 reconquest Dec 16, 2016 $11.9914% (55%)0 .. 20,0000%00:00 (00:00)
498 Pain Train Jan 11, 2017 $0.4914% (55%)50,000 .. 100,00012.5%03:18 (03:45)
499 BC Kings Jun 16, 2009 $4.9914% (55%)20,000 .. 50,0000%00:00 (00:00)
500 Sovereignty: Crown of Kings Feb 2, 2017 $24.9914% (55%)0 .. 20,0000%00:00 (00:00)
501 Urja Jan 9, 2015 $9.9913% (54%)20,000 .. 50,0000%00:00 (00:00)
502 Tic-Toc-Tower Sep 28, 2015 $2.9913% (54%)0 .. 20,0000%00:00 (00:00)
503 RESCUE 2: Everyday Heroes Jun 3, 2015 $19.9913% (54%)20,000 .. 50,00020%00:01 (00:00)
504 Crusaders: Thy Kingdom Come Oct 8, 2009 $9.99N/A (N/A)20,000 .. 50,0000%00:00 (00:00)
505 Defence to death May 11, 2017 $1.99N/A (N/A)50,000 .. 100,0000%00:00 (00:00)
506 Smugglers 5 Apr 11, 2014 $9.9913% (53%)20,000 .. 50,0000%00:00 (00:00)
507 Wickland Feb 6, 2015 $0.9913% (53%)50,000 .. 100,0000%00:00 (00:00)
508 The Stalin Subway Sep 19, 2014 $3.9913% (53%)0 .. 20,0002.56%14:39 (04:53)
509 Armada 2526 Apr 8, 2011 $14.99N/A (N/A/66%)0 .. 20,0000%00:00 (00:00)
510 Scapeland Mar 31, 2016 $3.9912% (52%)0 .. 20,0000%00:00 (00:00)
511 Meridian: New World Sep 26, 2014 $6.9912% (52%/43%)50,000 .. 100,0000%00:00 (00:00)
512 Royal Bounty HD Aug 10, 2015 $2.9912% (52%)0 .. 20,0000%00:00 (00:00)
513 Dusty Revenge:Co-Op Edition Feb 17, 2014 $14.9912% (52%)50,000 .. 100,0000.56%03:23 (01:07)
514 Nightside Apr 2, 2015 $9.9912% (52%)20,000 .. 50,0000%00:00 (00:00)
515 MinosMaze - The Minotaur's Labyrinth May 1, 2017 $4.99N/A (N/A)0 .. 20,0000%00:00 (00:00)
516 Biodrone Battle Jul 16, 2015 $1.9911% (51%)100,000 .. 200,0000%00:00 (00:00)
517 MDK2 HD Jul 30, 2012 $14.9911% (51%/73%)0 .. 20,0000%00:00 (00:00)
518 Castle Werewolf 3D Feb 7, 2017 $2.99N/A (N/A)50,000 .. 100,0000.25%00:59 (00:19)
519 Aegis Oct 6, 2016 $2.99N/A (N/A)0 .. 20,0000%00:00 (00:00)
520 Weather Lord: The Successor's Path Apr 8, 2015 $4.99N/A (N/A)0 .. 20,0000%00:00 (00:00)
521 Guncraft Aug 9, 2013 $14.9911% (50%/73%)100,000 .. 200,0000%00:00 (00:00)
522 Odd||Even Apr 6, 2016 $0.9911% (50%)20,000 .. 50,0000.64%02:33 (00:51)
523 No Pineapple Left Behind Feb 18, 2016 $6.99N/A (N/A/59%)0 .. 20,0000%00:00 (00:00)
524 Albedo: Eyes from Outer Space Apr 10, 2015 $14.9911% (50%/66%)50,000 .. 100,0000%00:00 (00:00)
525 Marvel: Ultimate Alliance 2 Jul 26, 2016 $39.9910% (49%)0 .. 20,0008%00:51 (00:33)
526 Kidnapped Aug 4, 2015 $1.3410% (49%)100,000 .. 200,0000.52%02:10 (01:26)
527 Synonymy Mar 5, 2015 $1.999% (48%)0 .. 20,0001.92%00:06 (00:02)
528 ALONE IN SPACE Feb 27, 2016 $4.999% (48%)0 .. 20,0000%00:00 (00:00)
529 PeriAreion Feb 19, 2015 $5.99N/A (N/A)0 .. 20,0000%00:00 (00:00)
530 Rubber and Lead Sep 4, 2015 $4.999% (48%)20,000 .. 50,0000.85%02:31 (00:50)
531 Aggression: Europe Under Fire Apr 9, 2014 $9.999% (48%)0 .. 20,0000%00:00 (00:00)
532 Star Traders: 4X Empires Dec 16, 2014 $9.999% (48%)0 .. 20,0000%00:00 (00:00)
533 Meridian: Squad 22 Aug 11, 2016 $14.999% (48%)0 .. 20,0000%00:00 (00:00)
534 Chronostorm: Siberian Border Apr 2, 2009 $0.99N/A (N/A)0 .. 20,0000%00:00 (00:00)
535 The Campaign Series: Fall Weiss May 30, 2014 $14.999% (47%)20,000 .. 50,0000%00:00 (00:00)
536 Z Steel Soldiers Aug 1, 2014 $1.299% (47%)50,000 .. 100,0000%00:00 (00:00)
537 Crossfire: Dungeons Jan 15, 2007 $3.999% (47%)0 .. 20,0000%00:00 (00:00)
538 Disposable Heroes Oct 1, 2015 $4.999% (47%)20,000 .. 50,0000%00:00 (00:00)
539 Hero Generations Apr 10, 2015 $5.999% (47%)0 .. 20,0000%00:00 (00:00)
540 Island Defense Jul 23, 2015 $1.999% (47%)50,000 .. 100,0000%00:00 (00:00)
541 Blasting Agent: Ultimate Edition Aug 17, 2016 $2.99N/A (N/A)0 .. 20,0000%00:00 (00:00)
542 Commander: Conquest of the Americas Jul 30, 2010 $9.998% (46%/68%)50,000 .. 100,0000%00:00 (00:00)
543 Magic Quest May 6, 2016 $1.99N/A (N/A)50,000 .. 100,0000%00:00 (00:00)
544 HitBox Jan 30, 2017 Free8% (46%)0 .. 20,0000%00:00 (00:00)
545 The Stalin Subway: Red Veil Oct 24, 2014 $2.998% (46%)20,000 .. 50,0000%00:00 (00:00)
546 Carrier Command: Gaea Mission Sep 28, 2012 $32.998% (46%/60%)200,000 .. 500,0000%00:00 (00:00)
547 Megamagic: Wizards of the Neon Age Apr 20, 2016 $9.998% (46%/67%)20,000 .. 50,0003.41%01:42 (01:42)
548 Hell Nov 13, 2014 $29.99N/A (N/A)0 .. 20,0000%00:00 (00:00)
549 Impire Feb 14, 2013 $19.998% (45%/45%)100,000 .. 200,0000%00:00 (00:00)
550 The Bluecoats: North vs South Feb 2, 2015 $4.998% (45%)20,000 .. 50,0000%00:00 (00:00)
551 World War 2: Time of Wrath Jun 6, 2014 $4.998% (45%)20,000 .. 50,0000%00:00 (00:00)
552 Redemption: Saints And Sinners Nov 18, 2016 $0.997% (44%)50,000 .. 100,0000.64%01:55 (01:16)
553 Pride of Nations Jun 7, 2011 $19.997% (44%/70%)20,000 .. 50,0000%00:00 (00:00)
554 Vendetta - Curse of Raven's Cry Nov 20, 2015 $29.997% (43%)0 .. 20,0000%00:00 (00:00)
555 DUNGEONS - Steam Special Edition Feb 10, 2011 $9.997% (43%/65%)200,000 .. 500,0000%00:00 (00:00)
556 Nux Aug 15, 2014 $6.997% (43%)100,000 .. 200,0000.44%02:07 (02:06)
557 Skyward Collapse May 23, 2013 $4.997% (43%/64%)100,000 .. 200,0000%00:00 (00:00)
558 Burstfire Sep 24, 2015 N/A7% (42%)50,000 .. 100,0000%00:00 (00:00)
559 The Entente Gold Jun 16, 2014 $1.997% (42%)20,000 .. 50,0000%00:00 (00:00)
560 Samudai Feb 9, 2015 $2.997% (42%)20,000 .. 50,0001.52%01:25 (00:28)
561 Sword of the Stars II: Enhanced Edition Nov 30, 2012 $19.997% (42%/65%)100,000 .. 200,0000%00:00 (00:00)
562 Pain Train 2 Mar 16, 2017 $6.996% (41%)0 .. 20,0004.08%00:30 (00:19)
563 Strategic War in Europe Mar 21, 2014 $2.996% (41%)20,000 .. 50,0000.86%00:15 (00:05)
564 Rulers of Nations Jul 16, 2014 $19.996% (41%/63%)0 .. 20,0000%00:00 (00:00)
565 Hydraulic Empire Jul 31, 2015 $7.996% (41%)0 .. 20,0000%00:00 (00:00)
566 Dungeons - The Dark Lord Sep 27, 2011 $19.996% (40%/72%)100,000 .. 200,0000.47%00:16 (00:05)
567 Dead But Alive! Southern England Oct 2, 2015 $14.996% (40%)0 .. 20,0000%00:00 (00:00)
568 The Kings' Crusade Oct 8, 2010 $9.996% (40%/71%)50,000 .. 100,0000%00:00 (00:00)
569 Wave of Darkness Nov 5, 2015 $29.996% (39%)0 .. 20,0000%00:00 (00:00)
570 Mechs & Mercs: Black Talons Jan 9, 2015 $9.996% (39%)0 .. 20,0000%00:00 (00:00)
571 Control Craft 2 Feb 15, 2016 $2.996% (39%)0 .. 20,0002%05:32 (01:50)
572 Gratuitous Space Battles 2 Apr 16, 2015 $9.996% (39%)20,000 .. 50,0000%00:00 (00:00)
573 Heavy Fire: Shattered Spear Oct 23, 2015 $3.99N/A (N/A)0 .. 20,0000%00:00 (00:00)
574 Devils & Demons Oct 6, 2015 $9.996% (39%)20,000 .. 50,0000%00:00 (00:00)
575 Dark Matter Oct 17, 2013 $9.996% (39%)0 .. 20,0000%00:00 (00:00)
576 Tiamat X May 29, 2015 $1.995% (38%)50,000 .. 100,0000%00:00 (00:00)
577 Risk Jun 10, 2013 $9.995% (38%)20,000 .. 50,0000%00:00 (00:00)
578 Lost in Paradise Aug 20, 2015 $2.99N/A (N/A)20,000 .. 50,0000%00:00 (00:00)
579 Infection: Humanity's Last Gasp May 26, 2016 $9.99N/A (N/A)0 .. 20,00010%07:45 (10:09)
580 Stellar Impact Apr 12, 2012 $9.995% (37%/74%)50,000 .. 100,0000%00:00 (00:00)
581 Zombie Apocalypse: Escape The Undead City Nov 25, 2013 $0.995% (37%)0 .. 20,0000%00:00 (00:00)
582 Knight Adventure Oct 15, 2015 $0.99N/A (N/A)50,000 .. 100,0003.28%04:17 (04:46)
583 Blue Sheep Mar 31, 2016 $1.99N/A (N/A)0 .. 20,0000%00:00 (00:00)
584 Kick-Ass 2 Aug 15, 2014 $19.994% (35%)0 .. 20,0000%00:00 (00:00)
585 Sim Junta Aug 18, 2015 $1.994% (35%)0 .. 20,0000%00:00 (00:00)
586 Shadows of War Jan 2, 2015 $2.994% (35%)20,000 .. 50,0000%00:00 (00:00)
587 Urban Empire Jan 20, 2017 $29.994% (35%/62%)50,000 .. 100,0000%00:00 (00:00)
588 Fallen: A2P Protocol Aug 14, 2015 $9.994% (34%)20,000 .. 50,0000%00:00 (00:00)
589 Into the Void Dec 4, 2015 $4.994% (34%)20,000 .. 50,0000%00:00 (00:00)
590 CTU: Counter Terrorism Unit Apr 22, 2016 $14.994% (34%)0 .. 20,0000%00:00 (00:00)
591 Ranger of the jungle Jul 16, 2016 $3.99N/A (N/A)0 .. 20,0000%00:00 (00:00)
592 Jagged Alliance Flashback Oct 21, 2014 $19.994% (33%)20,000 .. 50,0000%00:00 (00:00)
593 Arma Tactics Oct 1, 2013 $8.994% (33%/47%)200,000 .. 500,0000.6%02:19 (01:08)
594 Evopollution Apr 23, 2014 $4.993% (32%)0 .. 20,0000%00:00 (00:00)
595 Ku: Shroud of the Morrigan Mar 17, 2014 $4.993% (32%)20,000 .. 50,0000%00:00 (00:00)
596 Zombie Zoeds May 20, 2015 $0.53% (31%)200,000 .. 500,0000.16%04:04 (01:21)
597 Disciples III - Resurrection Oct 11, 2011 $14.993% (31%/63%)100,000 .. 200,0000%00:00 (00:00)
598 A Game of Thrones - Genesis Sep 28, 2011 $9.993% (31%)100,000 .. 200,0000%00:00 (00:00)
599 Psichodelya Aug 8, 2014 $0.99N/A (N/A)100,000 .. 200,0000.85%01:41 (01:40)
600 Ground Pounders Jul 15, 2014 $4.99N/A (N/A)0 .. 20,0000%00:00 (00:00)
601 Robotex Nov 19, 2014 $4.993% (30%)100,000 .. 200,0000.28%21:22 (07:07)
602 Power of Defense Aug 4, 2010 $9.99N/A (N/A)0 .. 20,0000%00:00 (00:00)
603 Tank Operations: European Campaign Nov 22, 2013 $14.993% (29%)20,000 .. 50,0000%00:00 (00:00)
604 Zombies on a Plane Mar 25, 2016 $4.993% (28%)0 .. 20,0000%00:00 (00:00)
605 Solar Shifter EX Sep 11, 2015 $4.992% (27%)20,000 .. 50,0000%00:00 (00:00)
606 Hard Truck Apocalypse: Arcade / Ex Machina: Arcade Mar 14, 2014 $4.992% (26%)20,000 .. 50,0000%00:00 (00:00)
607 Gridberd Sep 7, 2015 $6.992% (26%)200,000 .. 500,0000.12%02:28 (00:49)
608 One Star Apr 17, 2017 $2.99N/A (N/A)50,000 .. 100,0000.84%01:13 (01:12)
609 APOX Jan 20, 2011 $14.992% (23%/48%)20,000 .. 50,0000%00:00 (00:00)
610 Elite vs. Freedom May 31, 2016 $4.992% (22%)0 .. 20,0000%00:00 (00:00)
611 The Asskickers-Steam Edition Feb 6, 2015 $9.992% (21%)0 .. 20,0000%00:00 (00:00)
612 Lords of the Black Sun Sep 12, 2014 $29.992% (21%)0 .. 20,0000%00:00 (00:00)
613 Star Project Aug 4, 2016 $1.991% (19%)100,000 .. 200,0002.78%03:52 (04:33)
614 Gemini Wars Nov 2, 2012 $14.991% (19%/53%)20,000 .. 50,0000%00:00 (00:00)
615 Human Extinction Simulator Jan 21, 2015 $19.99N/A (N/A)0 .. 20,0000%00:00 (00:00)
616 Tryst Sep 14, 2012 $14.99N/A (N/A/50%)0 .. 20,0000%00:00 (00:00)
617 Prison Tycoon 3: Lockdown Jan 29, 2008 $9.991% (16%)20,000 .. 50,0000%00:00 (00:00)
618 Once Bitten, Twice Dead! Jul 17, 2015 $4.991% (13%)20,000 .. 50,0000%00:00 (00:00)
619 Citadels Jul 25, 2013 $14.991% (13%/20%)20,000 .. 50,0000%00:00 (00:00)
620 Bloodbath Jun 16, 2014 $14.99N/A (N/A)0 .. 20,0000%00:00 (00:00)
621 Magnetic By Nature Nov 10, 2014 $9.99N/A (N/A)20,000 .. 50,0000%00:00 (00:00)

Owners of this game also own:

Access restricted.

This feature is only available to users with special access rights. Sorry.

If you want to proceed, you need to register or log in first and then back Steam Spy on Patreon. Look for Indie or Pro pledge.

Don't forget to use the same email as on Steam Spy!

Playtime distribution:

Access restricted.

This feature is only available to users with special access rights. Sorry.

If you want to proceed, you need to register or log in first and then back Steam Spy on Patreon. Look for Indie or Pro pledge.

Don't forget to use the same email as on Steam Spy!

Playtime (2 weeks):

Access restricted.

This feature is only available to users with special access rights. Sorry.

If you want to proceed, you need to register or log in first and then back Steam Spy on Patreon. Look for Indie or Pro pledge.

Don't forget to use the same email as on Steam Spy!

User reviews:

Login required.

Please register or log in to see this information.